Tracking 20628 objects as of 7-Apr-2020
HD Live streaming from Space Station
objects crossing your sky now

ARIANE 2 DEB

Track ARIANE 2 DEB now!


NORAD ID: 26727
Int'l Code: 1989-006E
Perigee: 556.4 km
Apogee: 35,475.9 km
Inclination: 8.1 °
Period: 631.7 minutes
Semi major axis: 24387 km
RCS: 0.356 m2 (medium)
Launch date: January 27, 1989
Source: France (FR)
Launch site: FRENCH GUIANA (FRGUI)

Note: This is SATELLITE DEBRIS
aabbcc
Your satellite tracking list
Your tracking list is empty




NASA's NSSDC Master Catalog

Two Line Element Set (TLE):
1 26727U 89006E   20098.18642373 -.00000221 +00000-0 -32573-3 0  9990
2 26727 008.1077 251.8210 7159418 121.0878 276.2544 02.27961625160131
Source of the keplerian elements: AFSPC